Location: Colonia Mina de C?rbuni
(46.1667°N, 22.7167°E)
Time: 21:53:35
(UTC+00:00)

Tiros 1 - Pass Details

Date: 18 April 2024
Orbit: 624 x 657 km, 48.4° (Epoch: 20 May)

Event Time Altitude Azimuth Distance (km) Brightness Sun altitude
Rises 06:08:41 0° 283° (WNW) 2,903 9.9 25.2°
Reaches altitude 10° 06:11:44 10° 262° (W) 1,993 9.2 25.7°
Maximum altitude 06:14:32 16° 224° (SW) 1,625 9.0 26.2°
Drops below altitude 10° 06:17:20 10° 186° (S) 1,990 9.8 26.7°
Sets 06:20:24 0° 165° (SSE) 2,896 10.9 27.2°
